04-06-2023, 00:00:09,      8,    0.0,    7.5,   0.00,   0.00, 1020.4,    0.6, -999.0
04-06-2023, 00:00:19,      8,    0.0,    7.6,   0.00,   0.00, 1020.4,    0.5, -999.0
04-06-2023, 00:00:29,      8,    0.0,    7.6,   0.00,   0.00, 1020.4,    0.8, -999.0
04-06-2023, 00:00:39,      8,    0.0,    7.6,   0.00,   0.00, 1020.4,    0.7, -999.0
04-06-2023, 00:00:49,      8,    0.0,    7.6,   0.00,   0.00, 1020.4,    0.5, -999.0
04-06-2023, 00:00:59,      8,    0.0,    7.5,   0.00,   0.00, 1020.4,    0.5, -999.0
04-06-2023, 00:01:09,      8,    0.0,    7.6,   0.00,   0.00, 1020.4,    0.7, -999.0
04-06-2023, 00:01:19,      8,    0.0,    7.5,   0.00,   0.00, 1020.4,    0.6, -999.0
04-06-2023, 00:01:29,      8,    0.0,    7.5,   0.00,   0.00, 1020.4,    0.6, -999.0
04-06-2023, 00:01:39,      8,    0.0,    7.5,   0.00,   0.00, 1020.4,    0.6, -999.0
04-06-2023, 00:01:49,      8,    0.0,    7.5,   0.00,   0.00, 1020.4,    0.3, -999.0
04-06-2023, 00:01:59,      8,    0.0,    7.5,   0.00,   0.00, 1020.4,    0.5, -999.0
04-06-2023, 00:02:09,      8,    0.0,    7.5,   0.00,   0.00, 1020.4,    0.5, -999.0
04-06-2023, 00:02:19,      8,    0.0,    7.5,   0.00,   0.00, 1020.4,    0.8, -999.0
04-06-2023, 00:02:28,      8,    0.0,    7.4,   0.00,   0.00, 1020.4,    0.6, -999.0
04-06-2023, 00:02:39,      8,    0.0,    7.5,   0.00,   0.00, 1020.4,    0.5, -999.0
04-06-2023, 00:02:49,      8,    0.0,    7.5,   0.00,   0.00, 1020.4,    0.5, -999.0
04-06-2023, 00:02:59,      8,    0.0,    7.5,   0.00,   0.00, 1020.4,    0.7, -999.0
04-06-2023, 00:03:08,      8,    0.0,    7.5,   0.00,   0.00, 1020.4,    0.5, -999.0
04-06-2023, 00:03:19,      8,    0.0,    7.5,   0.00,   0.00, 1020.4,    0.7, -999.0
04-06-2023, 00:03:29,      8,    0.0,    7.5,   0.00,   0.00, 1020.4,    0.4, -999.0
04-06-2023, 00:03:38,      8,    0.0,    7.5,   0.00,   0.00, 1020.4,    0.5, -999.0
04-06-2023, 00:03:48,      8,    0.0,    7.6,   0.00,   0.00, 1020.4,    0.6, -999.0
04-06-2023, 00:03:59,      8,    0.0,    7.6,   0.00,   0.00, 1020.4,    0.3, -999.0
04-06-2023, 00:04:08,      8,    0.0,    7.5,   0.00,   0.00, 1020.4,    0.0, -999.0
04-06-2023, 00:04:18,      8,    0.0,    7.5,   0.00,   0.00, 1020.4,    0.4, -999.0
04-06-2023, 00:04:28,      8,    0.0,    7.5,   0.00,   0.00, 1020.4,    0.5, -999.0
04-06-2023, 00:04:39,      8,    0.0,    7.4,   0.00,   0.00, 1020.4,    0.6, -999.0
04-06-2023, 00:04:48,      8,    0.0,    7.4,   0.00,   0.00, 1020.4,    0.5, -999.0
04-06-2023, 00:04:58,      8,    0.0,    7.4,   0.00,   0.00, 1020.4,    0.6, -999.0
04-06-2023, 00:05:08,      8,    0.0,    7.4,   0.00,   0.00, 1020.4,    0.9, -999.0
04-06-2023, 00:05:18,      8,    0.0,    7.4,   0.00,   0.00, 1020.4,    0.5, -999.0
04-06-2023, 00:05:28,      8,    0.0,    7.4,   0.00,   0.00, 1020.4,    0.8, -999.0
04-06-2023, 00:05:38,      8,    0.0,    7.4,   0.00,   0.00, 1020.4,    0.1, -999.0
04-06-2023, 00:05:48,      8,    0.0,    7.5,   0.00,   0.00, 1020.4,    0.6, -999.0
04-06-2023, 00:05:58,      8,    0.0,    7.3,   0.00,   0.00, 1020.4,    0.4, -999.0
04-06-2023, 00:06:08,      8,    0.0,    7.4,   0.00,   0.00, 1020.4,    0.8, -999.0
04-06-2023, 00:06:18,      8,    0.0,    7.4,   0.00,   0.00, 1020.4,    0.6, -999.0
04-06-2023, 00:06:28,      8,    0.0,    7.4,   0.00,   0.00, 1020.4,    0.4, -999.0
04-06-2023, 00:06:38,      8,    0.0,    7.5,   0.00,   0.00, 1020.4,    0.7, -999.0
04-06-2023, 00:06:48,      8,    0.0,    7.5,   0.00,   0.00, 1020.4,    0.3, -999.0
04-06-2023, 00:06:58,      8,    0.0,    7.5,   0.00,   0.00, 1020.4,    0.5, -999.0
04-06-2023, 00:07:08,      8,    0.0,    7.4,   0.00,   0.00, 1020.4,    0.3, -999.0
04-06-2023, 00:07:18,      8,    0.0,    7.4,   0.00,   0.00, 1020.4,    0.1, -999.0
04-06-2023, 00:07:28,      8,    0.0,    7.5,   0.00,   0.00, 1020.4,    0.3, -999.0
04-06-2023, 00:07:38,      8,    0.0,    7.4,   0.00,   0.00, 1020.4,    0.6, -999.0
04-06-2023, 00:07:48,      8,    0.0,    7.5,   0.00,   0.00, 1020.4,    0.9, -999.0
04-06-2023, 00:07:58,      8,    0.0,    7.4,   0.00,   0.00, 1020.4,    0.4, -999.0
04-06-2023, 00:08:08,      8,    0.0,    7.4,   0.00,   0.00, 1020.4,    0.4, -999.0
04-06-2023, 00:08:18,      8,    0.0,    7.6,   0.00,   0.00, 1020.4,    0.3, -999.0
04-06-2023, 00:08:28,      8,    0.0,    7.5,   0.00,   0.00, 1020.4,    0.5, -999.0
04-06-2023, 00:08:38,      8,    0.0,    7.4,   0.00,   0.00, 1020.4,    0.5, -999.0
04-06-2023, 00:08:48,      8,    0.0,    7.4,   0.00,   0.00, 1020.4,    0.5, -999.0
04-06-2023, 00:08:58,      8,    0.0,    7.4,   0.00,   0.00, 1020.4,    0.6, -999.0
04-06-2023, 00:09:08,      8,    0.0,    7.3,   0.00,   0.00, 1020.4,    0.3, -999.0
04-06-2023, 00:09:18,      8,    0.0,    7.4,   0.00,   0.00, 1020.4,    0.4, -999.0
04-06-2023, 00:09:28,      8,    0.0,    7.4,   0.00,   0.00, 1020.4,    0.7, -999.0
04-06-2023, 00:09:38,      8,    0.0,    7.4,   0.00,   0.00, 1020.4,    0.6, -999.0
04-06-2023, 00:09:48,      8,    0.0,    7.5,   0.00,   0.00, 1020.4,    0.7, -999.0
04-06-2023, 00:09:58,      8,    0.0,    7.4,   0.00,   0.00, 1020.4,    0.5, -999.0
04-06-2023, 00:10:08,      8,    0.0,    7.4,   0.00,   0.00, 1020.4,    0.4, -999.0
04-06-2023, 00:10:18,      8,    0.0,    7.4,   0.00,   0.00, 1020.4,    0.5, -999.0
04-06-2023, 00:10:28,      8,    0.0,    7.4,   0.00,   0.00, 1020.4,    0.7, -999.0
04-06-2023, 00:10:38,     10,    0.0,    7.4,   0.00,   0.00, 1020.4,    0.3, -999.0
04-06-2023, 00:10:48,      8,    0.0,    7.3,   0.00,   0.00, 1020.4,    0.5, -999.0
04-06-2023, 00:10:58,      8,    0.0,    7.3,   0.00,   0.00, 1020.4,    0.7, -999.0
04-06-2023, 00:11:08,      8,    0.0,    7.3,   0.00,   0.00, 1020.4,    0.7, -999.0
04-06-2023, 00:11:18,      8,    0.0,    7.4,   0.00,   0.00, 1020.4,    0.5, -999.0
04-06-2023, 00:11:27,      8,    0.0,    7.3,   0.00,   0.00, 1020.4,    0.6, -999.0
04-06-2023, 00:11:38,      8,    0.0,    7.4,   0.00,   0.00, 1020.4,    0.6, -999.0
04-06-2023, 00:11:48,      8,    0.0,    7.4,   0.00,   0.00, 1020.4,    0.6, -999.0
04-06-2023, 00:11:57,      8,    0.0,    7.4,   0.00,   0.00, 1020.4,    0.5, -999.0
04-06-2023, 00:12:07,      8,    0.0,    7.3,   0.00,   0.00, 1020.4,    0.4, -999.0
04-06-2023, 00:12:18,      8,    0.0,    7.4,   0.00,   0.00, 1020.4,    0.6, -999.0
04-06-2023, 00:12:28,      8,    0.0,    7.5,   0.00,   0.00, 1020.4,    0.3, -999.0
04-06-2023, 00:12:37,      8,    0.0,    7.5,   0.00,   0.00, 1020.4,    0.5, -999.0
04-06-2023, 00:12:47,      8,    0.0,    7.6,   0.00,   0.00, 1020.5,    0.4, -999.0
04-06-2023, 00:12:58,      8,    0.0,    7.5,   0.00,   0.00, 1020.5,    0.3, -999.0
04-06-2023, 00:13:07,      8,    0.0,    7.5,   0.00,   0.00, 1020.4,    0.7, -999.0
04-06-2023, 00:13:17,      8,    0.0,    7.5,   0.00,   0.00, 1020.4,    0.6, -999.0
04-06-2023, 00:13:27,      8,    0.0,    7.4,   0.00,   0.00, 1020.4,    0.5, -999.0
04-06-2023, 00:13:38,      8,    0.0,    7.4,   0.00,   0.00, 1020.4,    0.5, -999.0
04-06-2023, 00:13:47,      8,    0.0,    7.4,   0.00,   0.00, 1020.4,    0.7, -999.0
04-06-2023, 00:13:57,      8,    0.0,    7.2,   0.00,   0.00, 1020.4,    0.5, -999.0
04-06-2023, 00:14:07,      8,    0.0,    7.3,   0.00,   0.00, 1020.5,    0.7, -999.0
04-06-2023, 00:14:17,      8,    0.0,    7.3,   0.00,   0.00, 1020.4,    0.5, -999.0
04-06-2023, 00:14:27,      7,    0.0,    7.3,   0.00,   0.00, 1020.4,    0.4, -999.0
04-06-2023, 00:14:37,      8,    0.0,    7.3,   0.00,   0.00, 1020.4,    0.5, -999.0
04-06-2023, 00:14:47,      8,    0.0,    7.3,   0.00,   0.00, 1020.4,    0.5, -999.0
04-06-2023, 00:14:57,      8,    0.0,    7.3,   0.00,   0.00, 1020.4,    0.7, -999.0
04-06-2023, 00:15:07,      8,    0.0,    7.3,   0.00,   0.00, 1020.4,    0.5, -999.0
04-06-2023, 00:15:17,      8,    0.0,    7.3,   0.00,   0.00, 1020.4,    0.6, -999.0
04-06-2023, 00:15:27,      8,    0.0,    7.3,   0.00,   0.00, 1020.4,    0.5, -999.0
04-06-2023, 00:15:37,      8,    0.0,    7.3,   0.00,   0.00, 1020.4,    0.4, -999.0
04-06-2023, 00:15:47,      8,    0.0,    7.4,   0.00,   0.00, 1020.4,    0.6, -999.0
04-06-2023, 00:15:57,      8,    0.0,    7.3,   0.00,   0.00, 1020.4,    0.4, -999.0
04-06-2023, 00:16:07,      8,    0.0,    7.3,   0.00,   0.00, 1020.5,    0.6, -999.0
04-06-2023, 00:16:17,      8,    0.0,    7.3,   0.00,   0.00, 1020.5,    0.5, -999.0
04-06-2023, 00:16:27,      8,    0.0,    7.4,   0.00,   0.00, 1020.4,    0.4, -999.0
04-06-2023, 00:16:37,      8,    0.0,    7.3,   0.00,   0.00, 1020.4,    0.4, -999.0
04-06-2023, 00:16:47,      8,    0.0,    7.3,   0.00,   0.00, 1020.4,    0.6, -999.0
04-06-2023, 00:16:57,      8,    0.0,    7.4,   0.00,   0.00, 1020.4,    0.3, -999.0
04-06-2023, 00:17:07,      8,    0.0,    7.4,   0.00,   0.00, 1020.5,    0.7, -999.0
04-06-2023, 00:17:17,      8,    0.0,    7.4,   0.00,   0.00, 1020.4,    0.4, -999.0
04-06-2023, 00:17:27,      8,    0.0,    7.2,   0.00,   0.00, 1020.4,    0.5, -999.0
04-06-2023, 00:17:37,      8,    0.0,    7.4,   0.00,   0.00, 1020.4,    0.4, -999.0
04-06-2023, 00:17:47,      8,    0.0,    7.3,   0.00,   0.00, 1020.4,    0.5, -999.0
04-06-2023, 00:17:57,      8,    0.0,    7.4,   0.00,   0.00, 1020.4,    0.6, -999.0
04-06-2023, 00:18:07,      8,    0.0,    7.4,   0.00,   0.00, 1020.4,    0.5, -999.0
04-06-2023, 00:18:17,      8,    0.0,    7.4,   0.00,   0.00, 1020.4,    0.5, -999.0
04-06-2023, 00:18:27,      8,    0.0,    7.4,   0.00,   0.00, 1020.4,    0.5, -999.0
04-06-2023, 00:18:37,      8,    0.0,    7.4,   0.00,   0.00, 1020.4,    0.5, -999.0
04-06-2023, 00:18:47,      8,    0.0,    7.4,   0.00,   0.00, 1020.5,    0.6, -999.0
04-06-2023, 00:18:57,      8,    0.0,    7.4,   0.00,   0.00, 1020.4,    0.6, -999.0
04-06-2023, 00:19:07,      8,    0.0,    7.4,   0.00,   0.00, 1020.4,    0.7, -999.0
04-06-2023, 00:19:17,      8,    0.0,    7.4,   0.00,   0.00, 1020.4,    0.6, -999.0
04-06-2023, 00:19:27,      8,    0.0,    7.4,   0.00,   0.00, 1020.5,    0.7, -999.0
04-06-2023, 00:19:37,      8,    0.0,    7.3,   0.00,   0.00, 1020.5,    0.2, -999.0
04-06-2023, 00:19:47,      8,    0.0,    7.4,   0.00,   0.00, 1020.5,    0.5, -999.0
04-06-2023, 00:19:57,      8,    0.0,    7.3,   0.00,   0.00, 1020.5,    0.4, -999.0
04-06-2023, 00:20:07,      7,    0.0,    7.3,   0.00,   0.00, 1020.4,    0.2, -999.0
04-06-2023, 00:20:17,      8,    0.0,    7.3,   0.00,   0.00, 1020.4,    0.7, -999.0
04-06-2023, 00:20:26,      8,    0.0,    7.3,   0.00,   0.00, 1020.5,    0.3, -999.0
04-06-2023, 00:20:37,      7,    0.0,    7.1,   0.00,   0.00, 1020.4,    0.7, -999.0
04-06-2023, 00:20:47,      8,    0.0,    7.3,   0.00,   0.00, 1020.5,    0.8, -999.0
04-06-2023, 00:20:57,      8,    0.0,    7.4,   0.00,   0.00, 1020.4,    0.0, -999.0
04-06-2023, 00:21:06,      8,    0.0,    7.3,   0.00,   0.00, 1020.4,    0.6, -999.0
04-06-2023, 00:21:17,      8,    0.0,    7.5,   0.00,   0.00, 1020.4,    0.5, -999.0
04-06-2023, 00:21:27,      8,    0.0,    7.5,   0.00,   0.00, 1020.5,    0.4, -999.0
04-06-2023, 00:21:36,      8,    0.0,    7.3,   0.00,   0.00, 1020.5,    0.8, -999.0
04-06-2023, 00:21:46,      8,    0.0,    7.4,   0.00,   0.00, 1020.5,    0.3, -999.0
04-06-2023, 00:21:57,      8,    0.0,    7.4,   0.00,   0.00, 1020.4,    0.5, -999.0
04-06-2023, 00:22:07,      8,    0.0,    7.5,   0.00,   0.00, 1020.5,    1.1, -999.0
04-06-2023, 00:22:16,      8,    0.0,    7.5,   0.00,   0.00, 1020.4,    0.3, -999.0
04-06-2023, 00:22:26,      8,    0.0,    7.4,   0.00,   0.00, 1020.5,    0.6, -999.0
04-06-2023, 00:22:37,      8,    0.0,    7.4,   0.00,   0.00, 1020.4,    0.5, -999.0
04-06-2023, 00:22:46,      8,    0.0,    7.4,   0.00,   0.00, 1020.5,    0.4, -999.0
04-06-2023, 00:22:56,      8,    0.0,    7.4,   0.00,   0.00, 1020.5,    0.5, -999.0
04-06-2023, 00:23:06,      8,    0.0,    7.4,   0.00,   0.00, 1020.5,    0.7, -999.0
04-06-2023, 00:23:16,      8,    0.0,    7.3,   0.00,   0.00, 1020.5,    0.6, -999.0
04-06-2023, 00:23:26,      8,    0.0,    7.3,   0.00,   0.00, 1020.5,    0.5, -999.0
04-06-2023, 00:23:36,      7,    0.0,    7.3,   0.00,   0.00, 1020.5,    0.1, -999.0
04-06-2023, 00:23:47,      8,    0.0,    7.4,   0.00,   0.00, 1020.5,    0.4, -999.0
04-06-2023, 00:23:56,     10,    0.0,    7.3,   0.00,   0.00, 1020.6,    0.7, -999.0
04-06-2023, 00:24:06,     10,    0.0,    7.4,   0.00,   0.00, 1020.5,    0.6, -999.0
04-06-2023, 00:24:16,     11,    0.5,    7.3,   0.00,   0.00, 1020.7,    0.7, -999.0
04-06-2023, 00:24:26,     11,    0.9,    7.4,   0.00,   0.00, 1020.7,    0.7, -999.0
04-06-2023, 00:24:36,     11,    0.5,    7.3,   0.00,   0.00, 1020.7,    0.3, -999.0
04-06-2023, 00:24:46,     11,    0.0,    7.3,   0.00,   0.00, 1020.6,    0.8, -999.0
04-06-2023, 00:24:56,     11,    0.0,    7.3,   0.00,   0.00, 1020.6,    0.3, -999.0
04-06-2023, 00:25:06,     10,    0.0,    7.3,   0.00,   0.00, 1020.6,    0.5, -999.0
04-06-2023, 00:25:16,     11,    0.0,    7.3,   0.00,   0.00, 1020.6,    0.6, -999.0
04-06-2023, 00:25:26,     11,    0.0,    7.3,   0.00,   0.00, 1020.6,    0.8, -999.0
04-06-2023, 00:25:36,     11,    0.2,    7.4,   0.00,   0.00, 1020.7,    0.5, -999.0
04-06-2023, 00:25:46,     11,    0.0,    7.3,   0.00,   0.00, 1020.5,    0.0, -999.0
04-06-2023, 00:25:56,     11,    0.3,    7.3,   0.00,   0.00, 1020.6,    0.5, -999.0
04-06-2023, 00:26:06,     11,    0.2,    7.3,   0.00,   0.00, 1020.6,    0.5, -999.0
04-06-2023, 00:26:16,     10,    0.0,    7.3,   0.00,   0.00, 1020.6,    1.0, -999.0
04-06-2023, 00:26:26,     10,    0.0,    7.4,   0.00,   0.00, 1020.5,    0.2, -999.0
04-06-2023, 00:26:36,      3,    0.0,    7.3,   0.00,   0.00, 1020.5,    0.7, -999.0
04-06-2023, 00:26:46,     14,    0.6,    7.4,   0.00,   0.00, 1020.7,    0.6, -999.0
04-06-2023, 00:26:56,     14,    0.3,    7.4,   0.00,   0.00, 1020.6,    0.6, -999.0
04-06-2023, 00:27:06,     14,    0.0,    7.3,   0.00,   0.00, 1020.5,    0.3, -999.0
04-06-2023, 00:27:16,     14,    0.0,    7.2,   0.00,   0.00, 1020.5,    0.3, -999.0
04-06-2023, 00:27:26,     14,    0.0,    7.3,   0.00,   0.00, 1020.5,    0.9, -999.0
04-06-2023, 00:27:36,     14,    0.0,    7.3,   0.00,   0.00, 1020.5,    0.7, -999.0
04-06-2023, 00:27:46,     14,    0.0,    7.3,   0.00,   0.00, 1020.5,    0.8, -999.0
04-06-2023, 00:27:56,     14,    0.0,    7.1,   0.00,   0.00, 1020.5,    0.6, -999.0
04-06-2023, 00:28:06,     14,    0.0,    7.3,   0.00,   0.00, 1020.5,    0.4, -999.0
04-06-2023, 00:28:16,     14,    0.0,    7.3,   0.00,   0.00, 1020.5,    0.0, -999.0
04-06-2023, 00:28:26,     14,    0.0,    7.2,   0.00,   0.00, 1020.5,    0.5, -999.0
04-06-2023, 00:28:36,     14,    0.0,    7.2,   0.00,   0.00, 1020.5,    0.7, -999.0
04-06-2023, 00:28:46,     14,    0.4,    7.3,   0.00,   0.00, 1020.7,    0.8, -999.0
04-06-2023, 00:28:56,     14,    0.9,    7.3,   0.00,   0.00, 1020.7,    0.6, -999.0
04-06-2023, 00:29:06,     14,    0.0,    7.3,   0.00,   0.00, 1020.5,    0.9, -999.0
04-06-2023, 00:29:16,     14,    0.4,    7.3,   0.00,   0.00, 1020.6,    0.6, -999.0
04-06-2023, 00:29:26,     14,    1.1,    7.4,   0.00,   0.00, 1020.7,    0.7, -999.0
04-06-2023, 00:29:36,     14,    1.0,    7.3,   0.00,   0.00, 1020.7,    0.8, -999.0
04-06-2023, 00:29:46,     14,    0.7,    7.3,   0.00,   0.00, 1020.7,    0.6, -999.0
04-06-2023, 00:29:56,     14,    0.1,    7.3,   0.00,   0.00, 1020.6,    0.9, -999.0
04-06-2023, 00:30:05,     14,    0.0,    7.2,   0.00,   0.00, 1020.5,    0.3, -999.0
04-06-2023, 00:30:16,     13,    0.1,    7.3,   0.00,   0.00, 1020.6,    0.7, -999.0
04-06-2023, 00:30:26,     13,    0.1,    7.3,   0.00,   0.00, 1020.6,    0.3, -999.0
04-06-2023, 00:30:35,     14,    0.0,    7.3,   0.00,   0.00, 1020.5,    0.6, -999.0
04-06-2023, 00:30:45,     13,    0.0,    7.3,   0.00,   0.00, 1020.5,    0.4, -999.0
04-06-2023, 00:30:56,     13,    0.0,    7.2,   0.00,   0.00, 1020.5,    0.5, -999.0
04-06-2023, 00:31:06,     14,    0.2,    7.3,   0.00,   0.00, 1020.6,    0.8, -999.0
04-06-2023, 00:31:15,     14,    0.0,    7.2,   0.00,   0.00, 1020.5,    0.6, -999.0
04-06-2023, 00:31:26,     14,    0.0,    7.2,   0.00,   0.00, 1020.6,    0.6, -999.0
04-06-2023, 00:31:36,     14,    0.0,    7.2,   0.00,   0.00, 1020.5,    0.5, -999.0
04-06-2023, 00:31:45,     46,    0.8,    7.3,   0.00,   0.00, 1020.6,    1.2, -999.0
04-06-2023, 00:31:55,     44,    0.7,    7.4,   0.00,   0.00, 1020.6,    0.7, -999.0
04-06-2023, 00:32:06,     44,    0.1,    7.3,   0.00,   0.00, 1020.6,    0.4, -999.0
04-06-2023, 00:32:15,     44,    0.0,    7.3,   0.00,   0.00, 1020.5,    0.4, -999.0
04-06-2023, 00:32:25,     21,    1.2,    7.3,   0.00,   0.00, 1020.6,    0.8, -999.0
04-06-2023, 00:32:35,     21,    0.1,    7.3,   0.00,   0.00, 1020.6,    0.4, -999.0
04-06-2023, 00:32:45,     21,    0.7,    7.2,   0.00,   0.00, 1020.6,    0.2, -999.0
04-06-2023, 00:32:55,     22,    0.5,    7.3,   0.00,   0.00, 1020.7,    0.6, -999.0
04-06-2023, 00:33:05,     21,    0.1,    7.3,   0.00,   0.00, 1020.5,    0.3, -999.0
04-06-2023, 00:33:15,     21,    0.6,    7.3,   0.00,   0.00, 1020.6,    0.4, -999.0
04-06-2023, 00:33:25,     21,    0.3,    7.2,   0.00,   0.00, 1020.6,    0.4, -999.0
04-06-2023, 00:33:35,     21,    0.0,    7.2,   0.00,   0.00, 1020.5,    0.4, -999.0
04-06-2023, 00:33:45,     21,    0.0,    7.2,   0.00,   0.00, 1020.5,    0.5, -999.0
04-06-2023, 00:33:55,     21,    0.0,    7.2,   0.00,   0.00, 1020.5,    0.6, -999.0
04-06-2023, 00:34:05,     50,    1.0,    7.2,   0.00,   0.00, 1020.6,    0.5, -999.0
04-06-2023, 00:34:15,     50,    0.2,    7.2,   0.00,   0.00, 1020.5,    0.6, -999.0
04-06-2023, 00:34:25,     50,    0.0,    7.2,   0.00,   0.00, 1020.5,    0.4, -999.0
04-06-2023, 00:34:35,     50,    0.1,    7.2,   0.00,   0.00, 1020.6,    0.6, -999.0
04-06-2023, 00:34:45,     50,    0.0,    7.2,   0.00,   0.00, 1020.5,    0.4, -999.0
04-06-2023, 00:34:55,     50,    0.0,    7.2,   0.00,   0.00, 1020.5,    0.7, -999.0
04-06-2023, 00:35:05,     50,    0.0,    7.2,   0.00,   0.00, 1020.5,    0.5, -999.0
04-06-2023, 00:35:15,     50,    0.0,    7.2,   0.00,   0.00, 1020.5,    0.4, -999.0
04-06-2023, 00:35:25,     50,    0.0,    7.1,   0.00,   0.00, 1020.4,    0.5, -999.0
04-06-2023, 00:35:35,     50,    0.4,    7.2,   0.00,   0.00, 1020.6,    0.6, -999.0
04-06-2023, 00:35:45,     49,    0.0,    7.2,   0.00,   0.00, 1020.5,    0.5, -999.0
04-06-2023, 00:35:55,     49,    0.1,    7.0,   0.00,   0.00, 1020.5,    0.4, -999.0
04-06-2023, 00:36:05,     49,    0.0,    7.1,   0.00,   0.00, 1020.4,    0.4, -999.0
04-06-2023, 00:36:15,     49,    0.0,    7.1,   0.00,   0.00, 1020.5,    0.6, -999.0
04-06-2023, 00:36:25,     49,    0.0,    7.1,   0.00,   0.00, 1020.5,    0.3, -999.0
04-06-2023, 00:36:35,     49,    0.0,    7.2,   0.00,   0.00, 1020.5,    0.5, -999.0
04-06-2023, 00:36:45,     49,    0.0,    7.1,   0.00,   0.00, 1020.4,    0.6, -999.0
04-06-2023, 00:36:55,     49,    0.0,    7.1,   0.00,   0.00, 1020.4,    0.5, -999.0
04-06-2023, 00:37:05,     49,    0.0,    7.1,   0.00,   0.00, 1020.4,    0.5, -999.0
04-06-2023, 00:37:15,     49,    0.0,    7.1,   0.00,   0.00, 1020.5,    0.3, -999.0
04-06-2023, 00:37:25,     48,    0.0,    7.1,   0.00,   0.00, 1020.5,    0.6, -999.0
04-06-2023, 00:37:35,     49,    0.0,    7.2,   0.00,   0.00, 1020.4,    0.6, -999.0
04-06-2023, 00:37:45,     49,    0.0,    7.1,   0.00,   0.00, 1020.4,    0.4, -999.0
04-06-2023, 00:37:55,      4,    1.4,    7.2,   0.00,   0.00, 1020.6,    0.0, -999.0
04-06-2023, 00:38:05,      3,    0.6,    7.2,   0.00,   0.00, 1020.5,    0.3, -999.0
04-06-2023, 00:38:15,      4,    0.3,    7.2,   0.00,   0.00, 1020.5,    0.7, -999.0
04-06-2023, 00:38:25,      4,    0.0,    7.1,   0.00,   0.00, 1020.5,    0.5, -999.0
04-06-2023, 00:38:35,      5,    0.5,    7.1,   0.00,   0.00, 1020.5,    0.7, -999.0
04-06-2023, 00:38:45,      4,    0.1,    7.2,   0.00,   0.00, 1020.5,    0.5, -999.0
04-06-2023, 00:38:54,      5,    0.0,    7.1,   0.00,   0.00, 1020.4,    0.4, -999.0
04-06-2023, 00:39:05,      5,    0.2,    7.2,   0.00,   0.00, 1020.6,    0.2, -999.0
04-06-2023, 00:39:15,      5,    0.4,    7.2,   0.00,   0.00, 1020.5,    0.1, -999.0
04-06-2023, 00:39:25,      5,    0.2,    7.2,   0.00,   0.00, 1020.5,    0.6, -999.0
04-06-2023, 00:39:34,      5,    0.0,    7.1,   0.00,   0.00, 1020.5,    0.7, -999.0
04-06-2023, 00:39:45,      5,    0.0,    7.1,   0.00,   0.00, 1020.4,    0.4, -999.0
04-06-2023, 00:39:55,      5,    0.3,    7.1,   0.00,   0.00, 1020.5,    0.2, -999.0
04-06-2023, 00:40:04,      5,    0.7,    7.2,   0.00,   0.00, 1020.6,    1.0, -999.0
04-06-2023, 00:40:15,      5,    0.7,    7.1,   0.00,   0.00, 1020.5,    0.4, -999.0
04-06-2023, 00:40:25,      5,    0.3,    7.2,   0.00,   0.00, 1020.5,    0.3, -999.0
04-06-2023, 00:40:34,      5,    0.0,    7.0,   0.00,   0.00, 1020.4,    0.5, -999.0
04-06-2023, 00:40:44,      5,    0.0,    7.1,   0.00,   0.00, 1020.4,    0.5, -999.0
04-06-2023, 00:40:55,      5,    0.0,    7.0,   0.00,   0.00, 1020.4,    0.5, -999.0
04-06-2023, 00:41:05,      5,    0.4,    7.1,   0.00,   0.00, 1020.5,    0.3, -999.0
04-06-2023, 00:41:14,      5,    0.0,    7.1,   0.00,   0.00, 1020.4,    0.4, -999.0
04-06-2023, 00:41:24,      5,    0.7,    7.1,   0.00,   0.00, 1020.5,    0.2, -999.0
04-06-2023, 00:41:35,      5,    0.2,    7.1,   0.00,   0.00, 1020.5,    0.8, -999.0
04-06-2023, 00:41:44,      5,    0.0,    7.0,   0.00,   0.00, 1020.4,    0.7, -999.0
04-06-2023, 00:41:54,      5,    0.0,    7.0,   0.00,   0.00, 1020.4,    0.2, -999.0
04-06-2023, 00:42:04,      5,    0.0,    7.0,   0.00,   0.00, 1020.4,    0.6, -999.0
04-06-2023, 00:42:15,      5,    0.0,    7.1,   0.00,   0.00, 1020.4,    0.5, -999.0
04-06-2023, 00:42:24,     26,    0.4,    7.0,   0.00,   0.00, 1020.5,    0.8, -999.0
04-06-2023, 00:42:34,     26,    0.6,    7.1,   0.00,   0.00, 1020.5,    0.7, -999.0
04-06-2023, 00:42:44,     26,    0.0,    7.0,   0.00,   0.00, 1020.4,    0.3, -999.0
04-06-2023, 00:42:54,     43,    0.7,    7.1,   0.00,   0.00, 1020.5,    0.9, -999.0
04-06-2023, 00:43:04,     48,    1.8,    7.2,   0.00,   0.00, 1020.6,    0.8, -999.0
04-06-2023, 00:43:14,     48,    0.4,    7.2,   0.00,   0.00, 1020.5,    0.8, -999.0
04-06-2023, 00:43:24,     48,    0.5,    7.1,   0.00,   0.00, 1020.5,    0.3, -999.0
04-06-2023, 00:43:34,     48,    0.6,    7.1,   0.00,   0.00, 1020.5,    0.4, -999.0
04-06-2023, 00:43:44,     48,    0.1,    7.1,   0.00,   0.00, 1020.5,    0.7, -999.0
04-06-2023, 00:43:54,     48,    0.0,    7.0,   0.00,   0.00, 1020.4,    0.5, -999.0
04-06-2023, 00:44:04,     48,    0.0,    7.0,   0.00,   0.00, 1020.4,    0.7, -999.0
04-06-2023, 00:44:14,     48,    0.7,    7.1,   0.00,   0.00, 1020.6,    0.6, -999.0
04-06-2023, 00:44:24,     47,    0.3,    7.1,   0.00,   0.00, 1020.5,    0.5, -999.0
04-06-2023, 00:44:34,     48,    0.0,    7.0,   0.00,   0.00, 1020.5,    0.5, -999.0
04-06-2023, 00:44:44,     48,    0.0,    7.0,   0.00,   0.00, 1020.4,    0.4, -999.0
04-06-2023, 00:44:54,     47,    0.0,    7.0,   0.00,   0.00, 1020.4,    0.5, -999.0
04-06-2023, 00:45:04,     48,    0.0,    7.0,   0.00,   0.00, 1020.4,    0.5, -999.0
04-06-2023, 00:45:14,     48,    0.0,    7.0,   0.00,   0.00, 1020.4,    0.7, -999.0
04-06-2023, 00:45:24,     47,    0.0,    7.1,   0.00,   0.00, 1020.4,    0.6, -999.0
04-06-2023, 00:45:34,     47,    0.0,    7.0,   0.00,   0.00, 1020.4,    0.3, -999.0
04-06-2023, 00:45:44,     48,    0.0,    7.0,   0.00,   0.00, 1020.4,    0.6, -999.0
04-06-2023, 00:45:54,     48,    0.0,    7.0,   0.00,   0.00, 1020.4,    0.5, -999.0
04-06-2023, 00:46:04,     48,    0.0,    7.1,   0.00,   0.00, 1020.4,    0.6, -999.0
04-06-2023, 00:46:14,     48,    0.0,    7.0,   0.00,   0.00, 1020.4,    0.3, -999.0
04-06-2023, 00:46:24,     48,    0.0,    7.0,   0.00,   0.00, 1020.4,    0.7, -999.0
04-06-2023, 00:46:34,     48,    0.2,    7.1,   0.00,   0.00, 1020.5,    0.8, -999.0
04-06-2023, 00:46:44,     48,    0.0,    7.1,   0.00,   0.00, 1020.5,    0.3, -999.0
04-06-2023, 00:46:54,     48,    0.1,    7.1,   0.00,   0.00, 1020.5,    0.5, -999.0